Fort Yukon, AK

3:39 AM AKDT on May 25, 2017 (GMT -0800)
Fort Yukon

Weather History for PFYU - January, 2013

Change the Weather History Date:

Saturday, January 12, 2013

  Actual Average Record
Temperature  
Mean Temperature -11 °F -  
Max Temperature 1 °F -8 °F 9 °F (2016)
Min Temperature -23 °F -20 °F -56 °F (2000)
Degree Days  
Heating Degree Days 76    
Moisture  
Dew Point -12 °F    
Average Humidity 87    
Maximum Humidity 100    
Minimum Humidity 64    
Precipitation  
Precipitation 0.00 in - - ()
Sea Level Pressure  
Sea Level Pressure 30.13 in    
Wind  
Wind Speed 3 mph (NE)    
Max Wind Speed 9 mph    
Max Gust Speed -    
Visibility 10 miles    
Events      
Averages and records for this station are not official NWS values.
T = Trace of Precipitation, MM = Missing Value Source: NWS Daily Summary

Daily Weather History Graph

Daily Weather History Graph

Search for Another Location

Airport or City:

Trip Planner

Search our weather history database for the weather conditions in past years. The results will help you decide how hot, cold, wet, or windy it might be!

Date:

Astronomy

Jan. 12, 2013 Rise Set
Actual Time 10:51 AM AKST 2:48 PM AKST
Civil Twilight 9:24 AM AKST 4:14 PM AKST
Nautical Twilight 8:11 AM AKST 5:28 PM AKST
Astronomical Twilight 7:06 AM AKST 6:33 PM AKST
Moon 10:03 AM AKST (1/12) 5:49 PM AKST (1/12)
Length of Visible Light 6h 49m
Length of Day
3h 56m
New Moon, 2% of the Moon is Illuminated
Jan 12
New Moon
Jan 18
First Quarter
Jan 26
Full
Feb 3
Last Quarter
Feb 9
New

Hourly Weather History & Observations

Time (AKST) Temp. Windchill Dew Point Humidity Pressure Visibility Wind Dir Wind Speed Gust Speed Precip Events Conditions
12:16 AM -11.2 °F - -13.0 °F 92% 30.21 in 10.0 mi Calm Calm - N/A   Scattered Clouds
12:36 AM -11.2 °F - -16.6 °F 77% 30.20 in 10.0 mi Calm Calm - N/A   Clear
12:56 AM -13.0 °F - -18.4 °F 77% 30.20 in 10.0 mi Calm Calm - N/A   Clear
1:16 AM -14.8 °F - -18.4 °F 84% 30.21 in 3.0 mi Calm Calm - N/A   Mostly Cloudy
1:36 AM -16.6 °F - -22.0 °F 76% 30.21 in 5.0 mi Calm Calm - N/A   Mostly Cloudy
1:56 AM -16.6 °F - -25.6 °F 64% 30.21 in 8.0 mi Calm Calm - N/A   Scattered Clouds
2:16 AM -18.4 °F - -25.6 °F 70% 30.21 in 7.0 mi Calm Calm - N/A   Partly Cloudy
2:36 AM -18.4 °F - -18.4 °F 100% 30.22 in 3.0 mi Calm Calm - N/A   Clear
2:56 AM -20.2 °F - - N/A% 30.21 in 5.0 mi Calm Calm - N/A   Clear
3:16 AM -20.2 °F - -27.4 °F 69% 30.22 in 4.0 mi Calm Calm - N/A   Clear
3:36 AM -20.2 °F - -20.2 °F 100% 30.22 in 10.0 mi Calm Calm - N/A   Clear
3:56 AM -22.0 °F - - N/A% 30.21 in 10.0 mi Calm Calm - N/A   Clear
4:16 AM -22.0 °F - -27.4 °F 76% 30.21 in 10.0 mi Calm Calm - N/A   Clear
4:36 AM -22.0 °F - -25.6 °F 83% 30.21 in 10.0 mi Calm Calm - N/A   Clear
4:56 AM -23.8 °F - - N/A% 30.21 in 10.0 mi Calm Calm - N/A   Clear
5:16 AM -22.0 °F - -25.6 °F 83% 30.21 in 10.0 mi Calm Calm - N/A   Scattered Clouds
5:36 AM -22.0 °F - -23.8 °F 91% 30.21 in 10.0 mi Calm Calm - N/A   Mostly Cloudy
5:56 AM -20.2 °F - -25.6 °F 76% 30.20 in 10.0 mi Calm Calm - N/A   Overcast
6:16 AM -18.4 °F - -18.4 °F 100% 30.19 in 10.0 mi Calm Calm - N/A   Overcast
6:36 AM -16.6 °F - -20.2 °F 84% 30.20 in 10.0 mi Calm Calm - N/A   Overcast
6:56 AM -14.8 °F -27.2 °F -16.6 °F 92% 30.19 in 10.0 mi NE 4.6 mph - N/A   Overcast
7:16 AM -14.8 °F -24.8 °F -23.8 °F 64% 30.19 in 10.0 mi ENE 3.5 mph - N/A   Overcast
7:36 AM -14.8 °F - -14.8 °F 100% 30.18 in 10.0 mi Calm Calm - N/A   Overcast
7:56 AM -13.0 °F -22.7 °F -20.2 °F 70% 30.19 in 10.0 mi NE 3.5 mph - N/A   Overcast
8:16 AM - - - N/A% 30.18 in 10.0 mi Calm Calm - N/A   Overcast
8:36 AM -11.2 °F -20.6 °F -14.8 °F 84% 30.18 in 10.0 mi ENE 3.5 mph - N/A   Overcast
8:56 AM -11.2 °F -20.6 °F -14.8 °F 84% 30.18 in 10.0 mi NE 3.5 mph - N/A   Overcast
9:16 AM -11.2 °F -20.6 °F -14.8 °F 84% 30.19 in 10.0 mi NE 3.5 mph - N/A   Overcast
9:36 AM -11.2 °F -23.0 °F -11.2 °F 100% 30.18 in 10.0 mi NE 4.6 mph - N/A   Overcast
9:56 AM -9.4 °F -22.7 °F -14.8 °F 77% 30.17 in 10.0 mi NE 5.8 mph - N/A   Overcast
10:16 AM -9.4 °F -22.7 °F -11.2 °F 92% 30.17 in 10.0 mi NE 5.8 mph - N/A   Overcast
10:36 AM -9.4 °F -24.3 °F -13.0 °F 84% 30.16 in 10.0 mi NE 6.9 mph - N/A   Overcast
10:56 AM -9.4 °F -22.7 °F -11.2 °F 92% 30.15 in 10.0 mi ENE 5.8 mph - N/A   Overcast
11:16 AM -9.4 °F -24.3 °F -11.2 °F 92% 30.15 in 10.0 mi NE 6.9 mph - N/A   Overcast
11:36 AM -9.4 °F -24.3 °F -11.2 °F 92% 30.15 in 10.0 mi NE 6.9 mph - N/A   Overcast
11:56 AM -9.4 °F -22.7 °F -11.2 °F 92% 30.14 in 10.0 mi NE 5.8 mph - N/A   Overcast
12:14 PM -7.6 °F -20.6 °F -9.4 °F 92% 30.14 in 10.0 mi North 5.8 mph - N/A   Overcast
12:16 PM -7.6 °F -20.6 °F -9.4 °F 92% 30.14 in 10.0 mi NE 5.8 mph - N/A   Overcast
12:36 PM -7.6 °F -18.8 °F -11.2 °F 84% 30.14 in 10.0 mi NNE 4.6 mph - N/A   Overcast
12:56 PM -7.6 °F -18.8 °F -9.4 °F 92% 30.14 in 10.0 mi NNE 4.6 mph - N/A   Overcast
1:16 PM -7.6 °F -20.6 °F -7.6 °F 100% 30.13 in 10.0 mi NE 5.8 mph - N/A   Overcast
1:36 PM -7.6 °F -20.6 °F -11.2 °F 84% 30.12 in 10.0 mi NE 5.8 mph - N/A   Overcast
1:56 PM -5.8 °F -16.7 °F -7.6 °F 92% 30.12 in 10.0 mi NE 4.6 mph - N/A   Overcast
2:16 PM -5.8 °F -16.7 °F -9.4 °F 84% 30.12 in 10.0 mi NE 4.6 mph - N/A   Overcast
2:36 PM -5.8 °F -14.5 °F -7.6 °F 92% 30.11 in 10.0 mi NNE 3.5 mph - N/A   Overcast
2:49 PM -5.8 °F -16.7 °F -7.6 °F 92% 30.11 in 10.0 mi North 4.6 mph - N/A   Overcast
2:56 PM -5.8 °F -16.7 °F -9.4 °F 84% 30.11 in 10.0 mi NNE 4.6 mph - N/A   Overcast
3:16 PM -5.8 °F -16.7 °F -7.6 °F 92% 30.11 in 10.0 mi NNE 4.6 mph - N/A   Overcast
3:36 PM -5.8 °F -19.9 °F -7.6 °F 92% 30.10 in 10.0 mi NE 6.9 mph - N/A   Overcast
3:56 PM -5.8 °F -18.4 °F -7.6 °F 92% 30.10 in 10.0 mi NNE 5.8 mph - N/A   Overcast
4:16 PM -4.0 °F -16.3 °F -7.6 °F 85% 30.10 in 10.0 mi NE 5.8 mph - N/A   Overcast
4:36 PM -4.0 °F -16.3 °F -7.6 °F 85% 30.10 in 10.0 mi NNE 5.8 mph - N/A   Overcast
4:56 PM -2.2 °F -14.2 °F -5.8 °F 85% 30.08 in 10.0 mi NE 5.8 mph - N/A   Overcast
5:16 PM -2.2 °F -15.6 °F -5.8 °F 85% 30.08 in 10.0 mi NE 6.9 mph - N/A   Overcast
5:36 PM -2.2 °F -15.6 °F -5.8 °F 85% 30.07 in 10.0 mi NE 6.9 mph - N/A   Overcast
5:56 PM -2.2 °F -15.6 °F -7.6 °F 78% 30.07 in 10.0 mi NE 6.9 mph - N/A   Overcast
6:16 PM -2.2 °F -15.6 °F -5.8 °F 85% 30.06 in 10.0 mi NE 6.9 mph - N/A   Mostly Cloudy
6:36 PM -2.2 °F -10.4 °F -5.8 °F 85% 30.06 in 10.0 mi ENE 3.5 mph - N/A   Mostly Cloudy
6:56 PM -2.2 °F -14.2 °F -2.2 °F 100% 30.06 in 10.0 mi NE 5.8 mph - N/A   Partly Cloudy
7:16 PM -2.2 °F -12.5 °F -7.6 °F 78% 30.05 in 10.0 mi ENE 4.6 mph - N/A   Clear
7:36 PM -2.2 °F -10.4 °F -4.0 °F 92% 30.06 in 10.0 mi NE 3.5 mph - N/A   Clear
7:56 PM -2.2 °F -14.2 °F -5.8 °F 85% 30.04 in 10.0 mi NE 5.8 mph - N/A   Clear
8:16 PM -2.2 °F -14.2 °F -5.8 °F 85% 30.03 in 10.0 mi NNE 5.8 mph - N/A   Partly Cloudy
8:36 PM -2.2 °F -15.6 °F -4.0 °F 92% 30.03 in 10.0 mi NE 6.9 mph - N/A   Mostly Cloudy
8:56 PM -0.4 °F -14.7 °F -2.2 °F 92% 30.01 in 10.0 mi NE 8.1 mph - N/A   Overcast
9:16 PM -0.4 °F -13.4 °F -4.0 °F 85% 30.01 in 10.0 mi ENE 6.9 mph - N/A   Mostly Cloudy
9:36 PM -0.4 °F -12.0 °F -2.2 °F 92% 30.01 in 10.0 mi ENE 5.8 mph - N/A   Partly Cloudy
9:56 PM -0.4 °F -10.4 °F -4.0 °F 85% 30.00 in 10.0 mi ENE 4.6 mph - N/A   Clear
10:16 PM -0.4 °F -13.4 °F -2.2 °F 92% 29.98 in 10.0 mi ENE 6.9 mph - N/A   Clear
10:36 PM -0.4 °F -14.7 °F -2.2 °F 92% 29.97 in 10.0 mi ENE 8.1 mph - N/A   Clear
10:56 PM 1.4 °F -13.5 °F -0.4 °F 92% 29.96 in 10.0 mi ENE 9.2 mph - N/A   Scattered Clouds
11:36 PM 1.4 °F -11.3 °F -0.4 °F 92% 29.95 in 10.0 mi ENE 6.9 mph - N/A   Overcast
11:56 PM 1.4 °F -13.5 °F -0.4 °F 92% 29.94 in 10.0 mi ENE 9.2 mph - N/A   Overcast